#timestamp,LO_Frequency,Hit,StdDev 
1548835215.4,286047002.5,N
1548835235.2,286047000.2,N
1548835255.1,286047002.4,N
1548835256.0,286047002.4,N
1548835275.8,286047002.6,N
1548835295.6,286047002.5,N
1548835315.5,286047002.7,N
1548835335.3,286046999.7,N
1548835355.2,286046999.7,N
1548835375.9,286046999.7,N
1548835395.7,286046999.7,N
1548835415.6,286047002.7,N
1548835435.4,286047000.9,N
1548835455.2,286046998.2,N
1548835475.1,286046998.4,N
1548835476.0,286046998.4,N
1548835495.8,286046998.6,N
1548835515.7,286047000.9,N
1548835535.5,286047001.0,N
1548835585.5,286047000.8,E
1548835595.4,286046999.0,N
1548835615.2,286046997.5,P
1548835635.1,286046997.4,P
1548835636.0,286046997.4,Y
1548835655.8,286046999.7,P
1548835675.7,286047002.7,P
1548835695.5,286047002.3,N
1548835715.3,286047001.9,N
1548835735.2,286047001.8,N
1548835755.0,286047004.3,N
1548835755.9,286047004.3,N
1548835775.8,286047002.2,N
1548835795.6,286047002.5,N
1548835815.4,286047000.1,N
1548835835.3,286046999.8,N
1548835855.1,286047002.5,N
1548835875.8,286047001.8,N
1548835895.7,286047001.8,N
1548835915.5,286047005.9,Y
1548835935.4,286047002.3,P
1548835955.2,286047002.5,P
1548835975.0,286047002.6,P
1548835975.9,286047002.6,Y
1548835995.8,286046999.2,P
1548836015.6,286046997.2,N
1548836035.5,286046997.1,N
1548836055.3,286046999.2,N
1548836075.1,286046999.6,N
1548836095.9,286046998.9,N
1548836115.7,286046998.4,N
1548836135.5,286046998.7,N
1548836155.4,286046996.5,N
1548836175.2,286046996.5,N
1548836195.1,286046999.4,N
1548836196.0,286046999.4,N
1548836215.8,286046996.9,N
1548836235.6,286046996.8,N
1548836255.5,286046999.0,N
1548836275.3,286046998.8,N
1548836295.1,286046998.6,N
1548836345.9,286046998.7,E
1548836355.8,286046998.6,N
1548836375.7,286047000.6,P
1548836395.5,286047000.2,N
1548836415.3,286047000.9,N
1548836435.2,286047001.1,N
1548836455.0,286046998.5,N
1548836455.9,286046998.5,N
1548836475.8,286046998.5,N
1548836495.6,286046998.3,N
1548836515.4,286047000.7,N
1548836535.3,286046998.1,N
1548836555.1,286046999.2,N
1548836575.9,286046999.1,N
1548836595.7,286046996.6,Y
1548836615.5,286046998.9,P
1548836635.4,286046997.7,P
1548836655.2,286046999.1,N
1548836675.1,286046996.6,Y
1548836676.0,286046996.6,P
1548836695.8,286047000.8,N
1548836715.6,286047000.2,N
1548836735.5,286047001.0,N
1548836755.3,286047000.1,N
1548836775.2,286047001.0,N
1548836795.9,286047002.3,N
1548836815.7,286047002.7,N
1548836835.6,286047002.2,N
1548836855.4,286047001.0,N
1548836875.2,286046998.7,N
1548836895.1,286046998.6,N
1548836896.0,286046998.6,N
1548836915.8,286046998.6,N
1548836935.7,286047001.1,N
1548836955.5,286047000.4,N
1548836975.3,286047002.4,N
1548836995.2,286047002.0,N
1548837015.0,286046999.9,N
1548837015.9,286046999.9,N
1548837035.8,286047002.6,N
1548837055.6,286047001.6,N
1548837075.4,286047002.8,N
1548837095.3,286047000.1,N
1548837115.6,286047002.1,N
1548837135.5,286047001.8,N
1548837155.3,286047004.3,N
1548837175.1,286047002.0,N
1548837195.9,286047000.0,N
1548837215.7,286047000.5,N
1548837235.5,286047000.9,N
1548837255.3,286047000.0,N
1548837275.1,286047002.1,N
1548837295.9,286047002.3,N
1548837315.7,286047001.8,N
1548837335.6,286047002.5,N
1548837355.4,286047001.8,N
1548837375.2,286047004.2,N
1548837395.1,286047004.4,N
1548837396.0,286047004.4,N
1548837415.8,286047001.8,N
1548837435.7,286047001.9,N
1548837455.5,286047001.8,N
1548837475.3,286047002.7,N
1548837495.2,286046999.8,N
1548837515.0,286047000.1,N
1548837515.9,286047000.1,N
1548837535.7,286047000.2,N
1548837555.6,286047002.4,N
1548837575.4,286047001.9,N
1548837595.3,286047002.3,N
1548837615.1,286046999.9,N
1548837616.0,286046999.9,N
1548837635.8,286047000.1,N
1548837655.7,286047002.8,N
1548837675.5,286047000.5,N
1548837695.3,286047002.3,N
1548837715.2,286047002.5,N
1548837735.0,286046999.7,N
1548837735.9,286046999.7,N
1548837755.8,286047002.0,N
1548837775.6,286047000.3,N
1548837795.4,286047000.0,N
1548837815.3,286046999.7,N
1548837835.1,286047002.8,N
1548837855.8,286046999.7,N
1548837875.7,286047000.5,N
1548837895.5,286047001.1,N
1548837915.4,286047000.3,N
1548837935.2,286047002.8,N
1548837955.0,286047002.2,N
1548837955.9,286047002.2,N
1548837975.8,286047002.1,N
1548837995.6,286047001.3,N
1548838015.5,286047001.7,N
1548838035.3,286047002.3,N
1548838055.1,286047003.7,Y
1548838075.9,286047001.8,P
1548838095.7,286047002.7,P
1548838115.6,286047001.6,N
1548838135.4,286047001.6,N
1548838155.2,286047000.0,N
1548838175.1,286046998.7,N
1548838176.0,286046998.7,N
1548838195.8,286046998.9,N
1548838215.6,286046998.9,N
1548838235.5,286046997.4,N
1548838255.3,286046998.1,N
1548838275.2,286046999.0,N
1548838295.9,286046999.3,N
1548838315.7,286046998.8,N
1548838335.6,286046998.5,N
1548838355.4,286046998.2,N
1548838375.2,286046998.6,N
1548838395.1,286046998.6,N
1548838396.0,286046998.6,N
1548838415.8,286046999.0,N
1548838435.7,286046998.7,N
1548838455.5,286046998.2,N
1548838475.3,286047000.6,N
1548838495.2,286047000.0,N
1548838515.0,286047002.8,N
1548838515.9,286047002.8,N
1548838535.8,286047000.2,N
1548838555.6,286047002.3,N
1548838575.4,286047000.9,N
1548838595.4,286047002.3,N
1548838615.2,286047000.7,N
1548838635.1,286047000.7,N
1548838636.0,286047000.7,N
1548838655.8,286046999.9,N
1548838675.6,286047000.0,N
1548838695.5,286047002.4,N
1548838715.3,286047002.6,N
1548838735.2,286047002.8,N
1548838755.9,286047000.1,N
1548838775.7,286047002.4,N
1548838795.6,286047000.5,N
